This is the latest recevied weather packets stored in our database for station/object N7WSS. If no packets are shown the sender has not sent any weather packets the latest 10 day(s).
| Time | Temp. | Humidity | Pressure | Rain* | Wind** | Luminosity | Snow |
|---|---|---|---|---|---|---|---|
| 1777454289 | 15.56° C | 26% | 1014.5 hPa | 0 mm | - | - | - |
| 1777453987 | 15° C | 27% | 1014.7 hPa | 0 mm | - | - | - |
| 1777453684 | 15° C | 27% | 1014.5 hPa | 0 mm | - | - | - |
| 1777453381 | 15° C | 27% | 1014.5 hPa | 0 mm | - | - | - |
| 1777453077 | 15° C | 26% | 1014.5 hPa | 0 mm | - | - | - |
| 1777452775 | 15.56° C | 26% | 1014.3 hPa | 0 mm | - | - | - |
| 1777452470 | 15.56° C | 26% | 1014.4 hPa | 0 mm | - | - | - |
| 1777452167 | 16.11° C | 26% | 1014.9 hPa | 0 mm | - | - | - |
| 1777451867 | 15.56° C | 26% | 1014.7 hPa | 0 mm | - | - | - |
| 1777451564 | 15.56° C | 26% | 1014.7 hPa | 0 mm | - | - | - |
| 1777451259 | 16.11° C | 26% | 1014.7 hPa | 0 mm | - | - | - |
| 1777450956 | 16.11° C | 26% | 1014.8 hPa | 0 mm | - | - | - |
| 1777450652 | 15.56° C | 26% | 1014.5 hPa | 0 mm | - | - | - |
| 1777450347 | 16.11° C | 26% | 1014.7 hPa | 0 mm | - | - | - |
| 1777450045 | 16.11° C | 25% | 1014.4 hPa | 0 mm | - | - | - |
| 1777449740 | 16.11° C | 25% | 1014.4 hPa | 0 mm | - | - | - |
| 1777449437 | 16.11° C | 25% | 1014.7 hPa | 0 mm | - | - | - |
| 1777449132 | 16.11° C | 25% | 1014.8 hPa | 0 mm | - | - | - |
| 1777448221 | 16.11° C | 25% | 1014.7 hPa | 0 mm | - | - | - |
| 1777447918 | 16.67° C | 25% | 1014.7 hPa | 0 mm | - | - | - |
| 1777447614 | 17.22° C | 25% | 1014.8 hPa | 0 mm | - | - | - |
| 1777447310 | 17.22° C | 25% | 1014.8 hPa | 0 mm | - | - | - |
| 1777447008 | 16.67° C | 25% | 1014.8 hPa | 0 mm | - | - | - |
| 1777446705 | 16.67° C | 25% | 1014.7 hPa | 0 mm | - | - | - |
| 1777446401 | 16.67° C | 25% | 1014.8 hPa | 0 mm | - | - | - |
* Rain latest hour (hover to see other rain measurements)
** Current wind speed in m/s (hover to see current wind gust speed)